CAPE
62 13 4 107 162 21 43 76 119 111 138 207 168 118 59 8 34 0 1 0 3 102 676 1266 1981 2083 1973 2130 2091 1969 2003 1956 2107 2131 2057 2090 2101 2138 2133 2063 1959 1727 1773 1814 1738 1537 1381 1490 1167
20 15 138 276 83 0 5 88 126 227 108 222 265 160 58 0 1 11 0 0 24 187 453 1128 1965 2333 2225 2186 2172 2117 1619 1783 2226 2121 2079 2080 1950 1914 1871 2012 1768 1798 1789 1684 1649 1563 1544 1445 1319
48 229 186 205 42 0 61 73 170 297 403 360 117 15 0 4 10 2 0 0 24 148 550 1082 2120 2409 2311 2133 1984 2108 1751 1866 1878 2046 1987 1897 1954 2004 1952 1775 1687 1694 1566 1446 1401 1309 1281 1276 1203
102 480 359 112 117 29 42 45 261 72 154 57 1 0 0 0 0 0 0 0 0 179 508 1760 1958 1862 2076 1811 2078 1913 1866 1989 1856 1969 1874 1759 1800 1937 1728 1788 1687 1636 1708 1554 1414 1309 1168 1202 1223
186 152 183 154 75 146 154 228 410 373 208 76 0 0 6 0 0 0 0 0 0 248 991 1392 2291 2455 2122 1769 1891 1863 1941 2015 2010 2112 2060 2142 1916 1804 1827 1828 1803 1888 1846 1739 1659 1575 1424 1369 1239
202 1 4 2 0 2 14 147 445 338 158 6 0 93 0 0 0 0 0 0 185 610 1008 1584 2139 2333 2253 1730 1913 1855 2123 1896 2174 2053 1859 2068 2270 1854 1812 1794 1744 1640 1609 1498 1315 1459 1414 980 1280
89 0 0 0 17 65 37 194 209 267 147 33 10 59 0 0 0 0 0 0 408 715 1090 1356 1421 1505 1695 2067 1868 1655 1803 1909 1972 2003 1973 1964 1913 1916 1781 1861 1773 1557 1494 1442 1382 1326 1312 1288 1077
17 0 0 3 0 77 334 171 366 359 320 176 72 2 0 0 0 0 0 256 256 653 1197 1286 1211 1072 1431 1545 1667 1676 1787 1775 1744 1692 1627 1558 1624 1652 1690 1907 2205 1403 1269 1202 1213 1219 1552 1557 1418
20 0 0 0 8 1 3 58 370 270 192 206 248 184 0 0 0 0 0 100 407 938 1166 1253 922 990 1096 1155 1237 1412 1659 1650 1572 1487 1531 1366 734 842 1239 1448 1793 1355 1135 1070 1162 1276 1561 1491 1461
438 0 0 0 40 35 161 28 18 261 330 292 210 0 0 0 0 0 52 332 539 717 1023 948 724 720 856 1291 959 773 948 954 984 799 162 62 89 197 807 1460 1595 1368 1184 1356 1894 1639 1264 1355 267
179 35 24 74 48 31 38 102 360 419 372 277 192 14 3 0 29 82 136 346 497 600 806 557 500 549 718 825 610 557 643 691 617 34 0 0 163 438 879 801 1137 604 271 257 219 398 651 739 380
35 253 215 47 56 22 23 131 536 396 384 291 185 91 117 129 162 132 181 100 302 437 501 295 423 531 138 485 456 466 460 408 419 0 0 20 190 477 621 388 434 494 205 432 536 606 694 609 74
25 40 107 112 62 17 2 18 3 281 447 272 129 219 230 163 193 277 222 74 105 161 187 188 427 346 54 138 109 342 271 286 429 0 0 107 97 349 504 675 459 459 307 54 1 510 286 160 40
1 0 7 33 20 4 4 0 39 494 406 322 174 221 252 250 317 296 194 146 58 61 85 99 335 218 134 23 0 29 14 74 303 34 0 177 0 327 676 653 370 391 273 16 0 239 11 19 43
0 0 0 11 0 1 10 3 557 425 393 357 276 265 227 275 298 297 208 210 48 12 36 52 165 175 143 22 0 0 0 34 306 319 280 171 386 572 546 490 188 151 124 41 154 140 16 44 55
0 0 0 15 25 19 25 7 561 352 285 254 210 191 159 179 211 244 256 161 156 9 16 0 184 317 76 52 105 240 1 0 246 478 456 369 350 815 645 294 362 439 280 455 412 247 246 141 141
0 0 0 0 33 46 48 28 585 353 306 273 213 188 178 189 120 108 223 152 144 34 0 0 59 472 12 324 297 349 173 122 152 264 379 694 936 1016 782 646 333 131 333 346 362 283 602 105 108
0 0 0 0 0 28 56 4 487 350 352 365 289 230 215 202 141 107 120 137 80 28 0 15 0 320 118 326 211 147 116 114 440 613 251 468 690 1198 931 471 679 482 85 542 575 91 0 0 1
0 0 0 0 0 0 1 133 484 438 309 439 384 372 261 226 130 156 125 104 78 48 39 14 0 168 274 401 274 72 53 19 195 285 288 299 674 1074 1059 946 670 237 215 644 117 34 6 0 0
0 0 0 0 0 0 0 101 353 473 349 430 408 407 401 369 256 201 189 156 112 80 65 31 9 10 392 242 340 88 3 18 147 33 313 319 788 1079 1093 973 619 721 384 502 292 410 16 0 0
0 0 0 0 0 0 0 107 127 210 338 377 328 343 314 320 221 267 168 227 160 107 93 59 45 0 142 275 174 400 403 237 278 61 660 480 932 1275 1353 796 774 793 709 712 609 576 66 0 0
0 0 0 0 0 0 0 38 106 173 131 64 54 102 163 188 234 204 105 237 111 155 49 179 167 88 57 344 176 419 447 628 419 195 189 783 1018 1281 1181 1054 1002 870 672 835 710 758 329 0 0
0 0 0 0 0 0 0 0 83 126 44 0 0 0 73 169 264 130 67 37 56 138 140 187 435 243 173 559 278 260 343 463 338 108 53 682 837 1258 1097 947 908 800 770 352 551 995 622 124 1
0 0 0 0 0 0 0 0 0 53 30 2 13 0 19 173 300 236 136 76 96 204 210 261 655 399 325 647 510 392 324 325 296 198 71 313 764 784 1185 1172 942 785 1093 749 257 420 937 539 221
0 0 0 0 0 0 0 0 0 19 30 27 3 0 57 222 279 242 228 148 126 351 284 347 438 993 697 661 778 667 574 459 472 222 81 378 471 553 986 1423 1198 1022 1043 981 646 470 1054 562 875
0 0 0 0 0 0 0 0 0 0 8 25 24 36 180 267 119 257 276 213 159 460 475 351 507 814 1011 906 810 841 807 732 574 224 130 173 722 564 640 1331 1324 1263 1178 1030 762 724 914 1149 640
0 0 0 0 0 0 0 0 0 0 0 0 22 109 321 279 124 196 287 280 209 467 670 565 512 607 1125 1005 1060 1153 1057 915 807 409 335 110 628 959 804 1022 1503 1249 1347 995 1124 849 951 1517 1072
0 0 0 0 0 0 0 0 0 0 0 0 0 96 405 447 226 130 269 352 278 504 733 857 809 715 1170 1195 980 916 1008 1509 996 497 435 881 386 721 1172 1045 1526 1441 1289 1162 1247 1258 1052 1215 1331
0 0 0 0 0 0 0 0 0 0 0 0 1 25 315 415 319 40 266 407 358 423 721 1252 1189 1058 1320 1490 1424 1131 799 798 1631 818 175 247 779 482 659 1189 1193 1652 1462 1270 1128 1335 1636 1198 1293
0 0 0 0 0 0 0 0 0 0 0 0 0 125 130 207 302 157 451 436 421 442 702 1174 1592 1386 1378 1661 1663 1560 1323 856 839 1626 829 335 424 929 505 1218 1288 1429 1677 1616 1420 1285 1502 1851 1426
CIN
-42 -80 -65 -6 -13 -9 -11 -13 -93 -67 -50 -54 -55 -78 -128 -166 -143 0 0 0 -11 -30 -2 0 0 0 0 0 0 0 0 0 0 0 0 0 0 0 0 0 0 0 0 0 0 0 0 0 -1
-85 -100 -7 -1 -11 0 -34 -134 -72 -26 -80 -76 -52 -80 -137 0 0 0 0 0 -79 -20 -9 -1 0 0 0 0 0 0 0 0 0 0 0 0 0 0 0 0 0 0 0 0 0 0 0 0 -2
-65 -23 -2 -3 -17 0 -14 -69 -45 -13 -48 -48 -89 -102 0 0 0 -1 0 0 -61 -25 -12 0 0 0 0 0 0 0 0 0 0 0 0 0 0 0 0 0 0 0 0 0 0 -1 -4 -1 -11
-20 -1 -3 -18 -15 -38 -34 -51 -15 -29 -55 -134 -4 0 0 0 0 0 0 0 0 -33 -16 0 0 0 0 0 0 0 0 0 0 0 0 0 0 0 0 0 0 0 0 0 0 0 -11 -4 -15
-24 -23 -3 -38 -58 -43 -62 -29 -16 -21 -96 -113 0 0 0 0 0 0 0 0 0 -24 -3 0 0 0 0 0 0 0 0 0 0 0 0 0 0 0 0 0 0 0 0 -1 0 0 -6 -4 -11
-25 -43 -79 -36 0 -70 -118 -75 -87 -112 -161 -301 -9 -161 0 0 0 0 0 0 -50 -14 -7 -1 0 0 0 0 0 0 0 0 0 0 0 0 0 0 0 0 0 -5 -13 -10 -14 -14 -19 -29 -13
-47 0 0 0 -103 -91 -110 -87 -86 -158 -141 -206 -237 -145 0 0 0 0 0 0 -33 -19 -8 -1 -1 -1 0 0 0 0 0 0 0 0 0 0 0 0 -7 -3 -2 -14 -16 -11 -19 -27 -28 -28 -25
-133 0 0 -34 -58 -121 -45 -64 -47 -127 -127 -148 -182 -7 0 0 0 0 0 -42 -52 -19 -9 -10 -8 -11 -5 -2 0 0 0 0 -3 -4 -3 -10 -7 -7 -15 -14 -1 -26 -34 -29 -25 -33 -21 -25 -29
-45 0 0 0 -31 -33 -87 -76 -19 -124 -181 -122 -128 -203 0 0 0 0 0 -69 -28 -6 -9 -15 -34 -34 -34 -20 -19 -8 -12 -8 -10 -17 -19 -47 -100 -76 -30 -31 -17 -27 -46 -40 -30 -29 -25 -31 -30
-24 0 0 0 -124 -43 -56 -92 -57 -97 -113 -153 -209 0 0 0 0 0 -193 -28 -21 -13 -7 -41 -58 -75 -62 -21 -56 -77 -69 -60 -58 -80 -59 -187 -213 -177 -91 -32 -18 -25 -40 -37 -29 -31 -27 -41 -122
-89 -161 -169 -141 -158 -85 -79 -165 -125 -142 -141 -256 -294 -209 -161 0 -228 -207 -127 -69 -56 -55 -33 -69 -89 -109 -87 -78 -125 -129 -124 -113 -117 -88 0 0 -208 -149 -96 -85 -57 -87 -104 -121 -145 -128 -110 -90 -122
-148 -119 -88 -156 -100 -81 -92 -137 -154 -154 -204 -186 -336 -370 -276 -223 -193 -183 -114 -151 -74 -59 -72 -105 -101 -114 -165 -151 -172 -165 -150 -164 -155 0 0 -65 -185 -135 -120 -139 -118 -117 -151 -111 -114 -113 -120 -95 -124
-210 -211 -130 -103 -97 -109 -72 -166 -41 -173 -240 -217 -226 -224 -198 -189 -152 -99 -91 -147 -125 -96 -98 -121 -104 -134 -194 -199 -226 -180 -181 -165 -148 0 0 -221 -159 -150 -137 -111 -146 -126 -154 -176 -66 -116 -121 -137 -119
-91 -11 -72 -61 -89 -57 -106 0 -30 -203 -290 -256 -219 -207 -170 -163 -134 -126 -125 -117 -182 -141 -129 -125 -118 -165 -181 -201 0 -146 -76 -197 -149 -67 0 -234 0 -172 -133 -133 -142 -156 -170 -42 0 -123 -201 -178 -150
0 0 0 -50 -3 -24 -111 -71 -89 -244 -294 -225 -228 -192 -177 -153 -145 -148 -155 -123 -212 -233 -168 -156 -132 -160 -171 -176 0 0 0 -132 -134 -149 -177 -211 -166 -129 -145 -144 -180 -171 -195 -116 -172 -188 -195 -94 -102
0 0 0 -134 -54 -56 -67 -36 -98 -202 -258 -221 -187 -193 -177 -173 -178 -152 -127 -126 -108 -131 -168 0 -97 -128 -165 -172 -186 -140 -4 0 -172 -132 -168 -170 -149 -131 -134 -163 -149 -150 -165 -153 -149 -140 -106 -109 -165
0 0 0 0 -102 -46 -37 -34 -118 -188 -179 -230 -230 -257 -189 -164 -197 -197 -136 -122 -114 -180 0 0 -130 -105 -31 -161 -140 -118 -142 -179 -171 -163 -158 -138 -106 -105 -114 -120 -147 -174 -142 -148 -126 -112 -112 -134 -107
0 0 0 0 0 -46 -39 -21 -158 -204 -203 -273 -260 -284 -279 -175 -214 -224 -185 -145 -157 -195 0 -195 0 -114 -164 -169 -154 -144 -157 -214 -120 -103 -161 -140 -117 -86 -99 -132 -104 -139 -144 -109 -96 -105 0 0 -19
0 0 0 0 0 0 -21 -70 -170 -208 -183 -187 -299 -341 -389 -349 -168 -153 -167 -163 -153 -203 -202 -223 0 -159 -141 -141 -153 -180 -164 -207 -176 -150 -128 -144 -126 -100 -93 -103 -117 -162 -111 -87 -108 -98 -83 0 0
0 0 0 0 0 0 0 -91 -161 -175 -206 -244 -311 -253 -285 -295 -224 -129 -105 -146 -160 -219 -212 -208 -173 -130 -134 -160 -154 -195 -69 -246 -157 -222 -141 -141 -119 -110 -106 -91 -121 -113 -104 -109 -88 -80 -32 0 0
0 0 0 0 0 0 0 -84 -59 -116 -155 -222 -226 -230 -247 -274 -286 -183 -108 -136 -138 -238 -242 -248 -240 0 -184 -189 -230 -198 -158 -179 -132 -261 -138 -138 -97 -99 -90 -95 -106 -106 -105 -79 -84 -89 -126 0 0
0 0 0 0 0 0 0 -24 -121 -218 -184 -226 -259 -336 -350 -278 -227 -271 -162 -147 -181 -224 -284 -222 -224 -233 -281 -214 -224 -132 -133 -109 -163 -171 -191 -115 -98 -82 -90 -82 -86 -98 -138 -87 -86 -92 -115 0 0
0 0 0 0 0 0 0 0 -175 -192 -212 0 0 0 -373 -349 -265 -254 -305 -218 -226 -194 -212 -244 -232 -242 -250 -199 -223 -213 -171 -156 -212 -237 -268 -112 -110 -80 -89 -95 -95 -108 -125 -141 -108 -78 -98 -218 -4
0 0 0 0 0 0 0 0 0 -159 -235 -124 -347 0 -392 -367 -311 -236 -217 -197 -227 -209 -201 -215 -201 -253 -255 -195 -194 -210 -214 -235 -228 -268 -291 -226 -99 -107 -90 -89 -93 -102 -96 -113 -182 -142 -88 -134 -197
0 0 0 0 0 0 0 0 0 -130 -167 -252 -146 0 -393 -365 -289 -248 -263 -241 -261 -244 -257 -249 -264 -180 -219 -200 -173 -188 -197 -229 -221 -284 -331 -220 -168 -157 -113 -88 -92 -101 -110 -110 -138 -162 -90 -171 -113
0 0 0 0 0 0 0 0 0 0 -91 -159 -367 -378 -412 -341 -434 -288 -323 -310 -326 -297 -289 -279 -271 -222 -209 -199 -205 -192 -171 -180 -192 -312 -350 -319 -155 -161 -139 -97 -98 -98 -102 -107 -137 -144 -109 -111 -167
0 0 0 0 0 0 0 0 0 0 0 0 -237 -268 -307 -341 -428 -312 -336 -322 -318 -367 -336 -324 -331 -274 -211 -217 -178 -155 -173 -158 -199 -288 -305 -398 -218 -140 -147 -124 -94 -109 -100 -129 -113 -135 -111 -68 -128
0 0 0 0 0 0 0 0 0 0 0 0 -9 -224 -269 -341 -330 -323 -320 -339 -318 -395 -371 -324 -319 -308 -238 -204 -219 -211 -213 -151 -191 -278 -304 -213 -296 -189 -123 -144 -102 -113 -115 -125 -127 -113 -128 -95 -108
0 0 0 0 0 0 0 0 0 0 0 0 -13 -191 -239 -298 -290 -403 -327 -318 -344 -375 -354 -311 -300 -265 -213 -176 -192 -223 -267 -260 -121 -249 -434 -361 -233 -285 -214 -139 -142 -104 -119 -132 -140 -120 -94 -133 -123
0 0 0 0 0 0 0 0 0 0 0 0 0 -257 -263 -314 -299 -366 -322 -334 -334 -367 -353 -338 -284 -252 -267 -255 -233 -224 -229 -291 -279 -142 -287 -393 -354 -216 -270 -170 -153 -157 -125 -112 -120 -142 -106 -74 -118
Wind_Speed
9 9 2 2 3 2 3 1 0 8 4 4 9 5 7 6 2 3 12 9 15 9 9 12 16 17 16 16 15 15 15 15 15 15 15 15 15 15 14 13 13 12 11 11 10 9 9 10 12
9 10 2 2 2 1 2 3 10 9 5 15 13 8 4 5 6 13 11 14 16 10 7 10 16 16 16 16 15 15 15 15 14 14 14 14 14 14 13 12 11 10 9 9 9 8 8 10 9
12 6 1 2 1 2 2 11 9 10 19 9 7 7 4 5 14 19 15 18 15 10 7 13 16 16 15 17 15 15 14 14 14 14 14 14 14 12 13 12 11 10 8 8 7 6 6 8 8
6 1 3 2 8 8 6 3 8 12 4 6 13 10 6 7 18 8 18 17 14 11 8 14 18 18 17 15 15 15 14 13 13 12 13 13 13 12 12 12 11 10 9 9 8 7 6 7 7
2 2 1 4 7 4 6 5 11 7 3 8 4 8 10 3 16 20 17 16 14 12 10 12 16 16 17 14 15 14 14 12 13 12 12 12 12 12 11 11 11 10 10 10 10 8 7 7 6
2 1 1 1 7 7 7 1 6 3 10 10 13 11 4 11 23 16 15 12 12 13 10 10 16 17 16 15 14 14 13 12 12 11 11 10 12 11 10 10 10 9 9 9 9 9 9 7 6
2 2 2 2 6 6 9 6 13 13 12 7 13 7 6 12 19 18 13 10 14 12 9 9 10 14 16 14 14 14 13 12 11 11 10 10 10 10 10 9 9 8 8 8 8 8 8 7 7
3 3 1 1 6 12 9 11 7 17 5 13 13 7 10 16 19 15 11 14 14 12 9 8 6 6 6 7 14 14 13 12 11 10 9 10 9 8 8 7 6 5 5 5 5 4 4 5 4
5 2 1 4 12 7 13 8 10 3 17 4 7 8 17 22 21 15 10 14 13 10 10 8 7 6 6 6 8 11 13 12 10 8 8 7 3 3 3 4 6 5 1 3 3 1 4 3 2
6 3 6 11 10 12 8 4 4 7 11 13 18 22 23 23 21 17 14 16 15 14 11 9 8 7 7 7 5 5 5 4 4 4 3 3 4 2 2 4 5 4 1 3 5 5 3 3 2
6 7 7 9 15 12 12 12 12 14 7 15 27 28 25 24 18 14 13 16 15 15 11 11 9 8 7 6 4 3 2 3 3 4 4 4 3 1 1 1 1 1 1 3 4 5 3 2 2
7 20 12 10 13 7 8 11 13 15 9 16 25 30 27 23 18 17 14 17 16 15 15 12 11 10 7 5 5 5 4 3 3 4 4 4 2 2 2 2 2 2 2 1 2 3 4 2 2
16 21 18 16 15 12 5 7 4 7 21 20 23 24 23 20 18 14 13 13 16 15 15 14 12 11 8 8 5 4 4 4 5 5 5 4 4 4 2 3 1 2 1 1 2 3 3 4 4
7 22 17 6 7 3 11 4 3 15 25 25 25 23 20 20 19 14 14 12 18 16 16 15 14 12 10 8 6 5 4 5 4 5 5 5 4 4 4 4 3 3 3 2 2 3 0 2 3
18 18 15 12 9 5 7 4 7 22 26 25 24 21 20 19 17 18 15 15 17 15 16 15 14 13 13 12 6 5 5 7 7 7 7 7 5 6 6 4 4 4 2 2 1 3 3 3 3
11 15 16 12 11 11 12 8 14 21 23 24 23 21 19 18 20 19 16 17 14 15 17 16 13 13 14 10 6 4 4 4 6 6 7 8 6 6 5 4 4 3 3 4 3 3 1 2 1
4 8 6 12 20 6 13 8 20 24 22 24 25 24 20 19 20 19 19 18 16 14 16 18 16 15 14 8 6 6 6 3 4 5 5 7 6 6 6 4 3 4 3 3 2 1 2 2 1
6 5 6 11 12 20 18 15 28 26 26 28 24 22 24 21 23 20 19 19 15 12 17 19 14 15 12 6 4 3 1 3 2 4 5 6 5 7 5 4 3 3 2 2 2 2 2 1 2
5 9 8 11 13 7 16 19 30 29 25 23 24 23 26 29 23 21 20 20 16 12 18 20 17 14 10 5 4 3 4 2 2 3 7 6 6 7 6 4 4 4 4 2 2 2 3 2 2
14 9 12 17 16 5 7 20 30 29 28 28 25 24 23 22 24 24 23 21 20 17 19 20 19 15 11 9 6 4 3 3 2 3 5 7 6 6 6 6 5 4 3 3 3 2 1 1 0
15 14 13 9 8 5 4 11 21 15 15 18 20 21 21 23 22 27 26 24 21 21 21 21 20 18 15 12 5 2 3 2 1 2 3 6 6 6 7 7 5 5 3 4 3 3 4 2 2
17 17 18 13 7 9 7 8 14 20 19 18 18 20 24 22 21 23 24 25 23 22 21 21 20 18 15 13 11 12 9 8 5 4 3 5 7 6 7 7 6 5 4 5 4 3 3 3 3
19 12 16 16 6 3 12 2 9 24 22 21 22 22 18 23 22 24 26 26 25 22 21 19 20 19 16 15 14 12 10 7 4 3 6 6 7 8 9 7 7 6 4 5 6 4 4 3 3
10 11 9 11 4 8 21 7 5 22 27 28 25 22 21 22 24 25 25 23 21 20 20 18 19 19 18 17 16 16 14 8 7 5 6 5 6 7 7 8 6 6 6 6 6 5 5 5 4
14 8 8 7 9 10 15 6 11 27 30 33 32 27 25 24 22 24 23 23 20 23 23 20 21 19 19 19 17 16 15 12 12 8 6 6 5 4 7 7 7 6 6 6 6 6 5 5 4
17 12 7 14 6 12 4 8 8 15 30 25 28 33 29 25 22 23 26 27 24 24 24 23 23 21 19 20 19 16 15 11 9 8 6 7 7 8 9 10 8 8 7 6 6 4 4 5 4
10 21 11 7 2 3 5 5 5 11 8 14 26 22 27 27 24 26 25 26 23 23 25 25 23 22 20 20 16 15 13 14 12 11 8 6 6 7 10 11 10 9 9 8 7 5 6 5 5
21 9 10 4 7 5 6 7 10 11 13 10 24 27 29 26 26 21 23 25 24 22 24 24 23 24 21 20 17 15 14 14 13 9 9 8 7 8 10 10 11 9 10 9 9 6 5 7 5
8 15 6 7 7 8 3 11 8 12 10 13 20 29 29 28 28 25 23 24 26 22 21 22 21 22 19 18 18 17 15 15 10 10 10 11 7 9 9 10 10 12 12 11 9 8 8 10 9
20 9 11 9 11 4 5 12 4 14 15 16 14 26 30 30 30 26 26 24 23 22 20 22 21 21 21 20 18 18 15 13 13 12 11 11 12 7 9 8 11 13 13 12 12 11 11 11 10
Wind_Direction
164 165 168 195 218 179 254 42 193 174 233 224 134 164 144 27 68 150 130 143 132 129 130 132 127 127 126 115 115 111 107 110 106 104 102 107 108 106 110 112 112 112 111 116 114 108 105 96 92
162 153 228 262 241 115 318 343 237 211 162 114 106 118 56 82 81 120 125 146 133 134 125 131 129 131 124 120 119 114 114 111 109 108 108 106 107 104 102 104 105 106 111 114 110 107 103 97 97
167 190 235 212 203 191 138 234 242 238 154 138 116 44 59 92 120 140 134 139 131 128 127 133 134 132 125 123 123 118 118 114 113 111 111 107 104 104 106 106 106 103 105 103 103 101 98 99 100
179 263 261 260 253 229 224 176 199 162 122 57 111 81 62 100 136 140 141 137 131 133 139 135 138 132 129 128 131 123 122 120 114 107 105 105 104 105 109 108 109 107 97 92 86 89 93 99 101
241 247 224 304 290 278 272 277 182 179 89 126 113 87 103 5 116 136 138 143 138 141 140 139 139 137 132 135 126 128 125 123 117 115 109 108 108 109 108 108 108 102 97 95 89 83 74 77 87
183 231 90 204 309 317 311 253 206 146 101 116 106 111 55 133 130 147 147 144 136 139 143 141 141 139 134 140 135 130 127 128 123 120 114 107 107 113 111 109 107 109 109 103 98 92 85 75 76
133 94 179 310 307 336 336 330 199 132 138 120 142 85 119 147 141 148 149 134 139 139 143 139 145 141 142 143 137 137 136 134 131 124 121 115 115 116 121 118 112 111 109 110 107 106 101 86 75
129 114 285 88 31 329 330 327 199 137 114 113 140 139 157 160 151 153 152 135 138 143 145 141 137 129 137 148 148 147 143 143 137 136 132 125 124 127 135 123 116 121 123 116 110 114 113 111 88
163 53 186 165 124 256 264 322 176 54 134 170 178 130 141 151 153 156 149 141 140 144 150 148 138 142 141 153 166 153 155 153 153 150 145 113 98 82 136 147 149 145 151 92 82 96 134 116 119
203 193 213 192 196 151 217 166 171 139 139 106 98 114 142 153 159 162 157 150 152 153 158 158 153 158 152 170 168 166 171 151 150 146 164 131 125 143 207 229 172 156 227 337 352 352 16 111 163
186 211 239 241 229 192 202 181 145 132 158 169 146 146 153 158 164 167 160 154 155 158 160 169 163 168 163 174 180 164 182 171 166 177 184 176 170 202 223 203 181 133 35 13 10 349 7 310 209
238 226 228 236 243 248 209 165 169 173 160 170 150 151 153 164 170 170 169 155 160 164 166 172 169 172 173 175 189 174 175 189 166 179 205 179 153 149 172 178 190 226 115 176 289 316 318 344 355
235 244 230 233 235 235 179 195 259 172 137 143 148 150 158 164 169 170 169 155 164 170 170 175 174 175 180 189 193 178 184 184 183 175 210 182 165 154 210 215 195 215 167 230 297 296 355 351 37
240 250 263 188 221 244 192 146 33 143 137 151 158 158 162 171 172 171 172 170 170 175 176 179 180 176 181 197 194 193 181 192 178 173 197 212 171 165 183 196 200 230 193 222 236 270 280 230 94
246 267 272 222 197 197 131 149 196 160 152 154 162 163 165 176 174 185 180 183 177 181 179 183 181 179 185 200 193 195 212 202 180 178 183 209 197 161 167 173 178 203 199 239 154 281 307 19 352
228 239 254 231 230 149 131 226 161 157 155 159 169 167 172 179 180 186 188 193 188 176 179 184 185 184 190 195 180 194 210 155 174 161 184 195 184 149 143 173 202 180 198 212 150 224 345 1 338
233 240 242 242 217 170 180 194 158 162 170 166 178 172 175 185 195 192 193 192 194 181 182 185 185 184 190 189 179 175 164 141 173 161 178 191 173 153 142 166 168 180 204 164 181 144 207 222 211
209 196 210 236 243 200 199 233 157 172 176 176 180 181 173 194 195 200 197 195 194 175 178 184 183 183 186 179 158 159 188 140 161 175 179 185 174 149 129 158 170 137 194 137 144 86 44 111 168
236 213 246 255 243 194 224 155 163 175 183 177 183 189 185 181 199 196 199 198 196 179 180 185 181 180 172 167 157 170 191 236 148 184 180 199 183 156 141 162 173 171 165 200 130 115 82 39 98
230 240 244 264 269 183 188 169 167 178 184 184 179 187 192 187 188 198 200 199 194 182 184 183 184 178 182 179 179 161 164 208 182 169 199 182 202 160 153 158 188 188 164 139 186 125 82 52 33
220 224 243 228 284 305 246 151 167 192 189 174 193 197 190 185 181 190 197 196 197 184 183 183 184 182 185 180 154 100 84 23 243 188 184 187 191 173 162 172 166 174 172 181 189 161 135 138 348
218 219 240 247 251 253 178 184 202 175 189 204 203 206 183 201 185 184 190 196 194 187 182 180 182 182 183 173 178 181 194 198 217 199 172 180 179 187 178 182 180 186 173 181 189 184 158 124 162
222 212 230 242 227 286 261 233 218 185 196 203 215 224 202 190 194 187 186 187 188 177 182 179 180 181 178 180 182 183 192 201 186 194 171 183 188 190 191 186 177 187 181 194 184 184 180 159 142
196 206 241 242 192 239 253 169 224 186 202 198 214 223 201 199 200 197 191 186 182 179 177 178 176 183 182 183 186 187 191 189 190 194 192 178 193 197 195 189 181 186 190 189 191 199 189 186 169
214 148 219 246 223 228 244 177 225 195 204 208 199 205 201 201 196 195 190 192 184 182 182 180 180 182 185 186 187 190 192 190 195 193 190 174 178 189 203 182 187 196 189 196 183 181 193 193 183
210 198 176 213 205 229 214 210 245 194 209 212 202 190 195 195 199 197 194 191 188 183 184 185 184 186 184 188 192 192 194 198 201 192 190 190 192 195 192 195 192 197 188 189 187 177 194 186 199
204 214 174 128 259 160 222 261 275 247 202 180 192 197 202 198 203 202 193 194 191 184 186 187 186 191 188 192 190 191 195 199 201 202 193 184 183 193 193 193 194 197 195 187 183 191 194 186 194
209 165 185 175 202 239 270 221 225 233 234 174 192 190 203 199 203 204 196 192 192 189 187 185 188 189 189 192 194 196 192 198 201 190 194 189 191 195 193 191 194 194 199 194 183 193 187 188 205
207 198 197 152 154 201 235 252 203 223 228 225 183 190 199 192 199 200 198 196 193 190 185 186 186 188 189 191 196 198 203 202 192 196 201 206 195 193 192 193 191 198 199 199 192 195 195 197 206
216 195 185 198 212 193 169 259 203 209 212 225 193 187 193 194 201 198 192 193 190 189 185 187 185 186 191 192 194 200 197 197 200 202 203 203 209 189 195 188 194 199 202 199 200 202 202 202 202